Location: Napier
(39.4830°S, 176.9170°E)
Time: 14:50:06
(UTC+13:00)

ISS - Pass Details

Date: 29 January 2019
Orbit: 403 x 411 km, 51.6° (Epoch: 19 February)

Event Time Altitude Azimuth Distance (km) Brightness Sun altitude
Exits shadow 04:42:35 17° 16° (NNE) 1,123 -1.8 -16.3°
Maximum altitude 04:43:52 21° 48° (NE) 980 -1.8 -16.1°
Drops below altitude 10° 04:46:30 10° 100° (E) 1,492 0.0 -15.7°
Sets 04:48:54 0° 116° (ESE) 2,359 1.6 -15.3°
